Other Public Products
Issued by NWS Grand Forks, ND

Home | Current Version | Previous Version | Text Only | Print | Product List | Glossary On
Versions: 1 2 3 4 5 6 7 8 9 10 11 12 13 14 15 16 17 18 19 20 21 22 23 24 25 26 27 28 29 30 31 32 33 34 35 36 37 38 39 40 41 42 43 44 45 46 47 48 49 50
000
FPUS83 KFGF 241710
OPUFGF
PRAIRIE TO PINES WEATHER ROUNDUP
NATIONAL WEATHER SERVICE EASTERN NORTH DAKOTA/GRAND FORKS ND
1200 PM CDT MON JUL 24 2017

 **SATELLITE DATA USED TO AUGMENT SKY COVER AT AUTOMATED STATIONS**
 *****  WEATHER ACROSS EASTERN NORTH DAKOTA  *****

CITY           SKY/WX    TMP DP  RH WIND       PRES   REMARKS
GRAND FORKS    FAIR      77  65  66 S16G23    29.92F
GRAND FORKS AF FAIR      76  64  65 S16G24    29.92F
GRAND CITY NWS NOT AVBL
BUXTON         NOT AVBL
DEVILS LAKE    FAIR      78  62  57 SE14G21   29.88F
FARGO          MOSUNNY   76  63  64 S17G23      N/A
WAHPETON ARPT  FAIR      72  61  68 S13       29.97F
$$

 *****  WEATHER ACROSS CENTRAL AND WESTERN NORTH DAKOTA  *****

CITY           SKY/WX    TMP DP  RH WIND       PRES   REMARKS
JAMESTOWN      FAIR      77  61  57 S18G24    29.91S
BISMARCK       FAIR      77  61  57 S5        29.86R
MINOT          FAIR      88  56  33 S22G32    29.76F
MINOT AFB      FAIR      88  57  35 S15G22    29.75F
GARRISON         N/A     82  59  45 S15G24    29.80F
WILLISTON      FAIR      89  55  31 SW10      29.76F
DICKINSON      FAIR      86  57  37 S17       29.81F
HETTINGER      FAIR      83  57  41 S14       29.87F
$$

 *****  OTHER OBSERVATIONS NORTHEAST NORTH DAKOTA  *****

CITY           SKY/WX    TMP DP  RH WIND       PRES   REMARKS
WALHALLA       NOT AVBL
LANGDON        FAIR      79  66  65 S17       29.89F
CAVALIER       FAIR      75  66  73 S12G20    29.89F
GRAFTON        FAIR      77  64  65 S16G25    29.92F
CANDO          NOT AVBL
FORT TOTTEN      N/A     78  62  56 S9        29.95S
ROLLA            N/A     77  66  69 S14G24    29.85S
RUGBY          NOT AVBL
 ***** THE ABOVE OBSERVATIONS ARE NON NWS ARE NOT QUALITY
        CONTROLLED AND MAY MIS-REPORT RAIN FOR SNOW...
$$

 *****  OTHER OBSERVATIONS SOUTHEAST NORTH DAKOTA *****

CITY           SKY/WX    TMP DP  RH WIND       PRES   REMARKS
COOPERSTOWN    FAIR      75  64  69 S16       29.92F
VALLEY CITY    FAIR      75  64  69 S15       29.95S
OAKES          NOT AVBL
GWINNER        MOSUNNY   77  64  65 S8        29.95S
SHEYENNE NWR     N/A     77  64  63 S9        29.95S
BUFFALO        NOT AVBL
WYNDMERE       NOT AVBL
 ***** THE ABOVE OBSERVATIONS ARE NON NWS ARE NOT QUALITY
       CONTROLLED AND MAY MIS-REPORT RAIN FOR SNOW...
$$

  *****  WEATHER ACROSS NORTHERN MINNESOTA  *****

CITY           SKY/WX    TMP DP  RH WIND       PRES   REMARKS
FLAG ISLAND    FAIR      73  63  68 S7        29.97F
WARROAD        FAIR      75  64  69 S8        29.98F
ROSEAU         FAIR      75  64  69 S14G20    29.97F
HALLOCK        FAIR      75  64  69 S17G23    29.92F
THF RVR FALLS  PTSUNNY   73  63  68 S9        29.98F
HALSTAD        NOT AVBL
FOSSTON        FAIR      73  61  64 S12G18    30.00F
BAUDETTE       PTSUNNY   75  60  59 S10       29.99F
WASKISH        PTSUNNY   75  57  53 S8        30.01F
CROOKSTON      FAIR      73  63  68 S15       29.96F
$$
  *****  WEATHER ACROSS CENTRAL AND WEST MINNESOTA  *****

CITY           SKY/WX    TMP DP  RH WIND       PRES   REMARKS
BEMIDJI        FAIR      73  55  53 S8        30.02F
PARK RAPIDS    FAIR      73  58  59 S7        30.04S
WADENA         FAIR      72  59  64 SE7       30.04S
DETROIT LAKES  FAIR      72  59  64 S10       30.02F
MOORHEAD       FAIR      73  63  68 S14       29.98F
FERGUS FALLS   FAIR      73  63  68 S13       29.99F
ELBOW LAKE     FAIR      72  62  72 SE12      30.02F
MORRIS MN      FAIR      75  63  64 SE13G18   30.00F
STAPLES        FAIR      72  57  60 SE8       30.05S
WHEATON        FAIR      75  61  60 SE15      29.99F
$$
  *****  WEATHER ELSEWHERE ACROSS MINNESOTA  *****

CITY           SKY/WX    TMP DP  RH WIND       PRES   REMARKS
DULUTH         FAIR      69  55  60 SE12      30.09S
INTRNTL FALLS  FAIR      74  54  49 SE8       30.03F
ELY            FAIR      72  50  46 SW9       30.08F
CLOQUET        FAIR      70  52  52 SE8       30.08S
BRAINERD       FAIR      68  57  68 VRB7      30.07S
HIBBING        FAIR      71  51  49 SE9       30.08S
ALEXANDRIA     FAIR      71  60  68 SE10      30.04F
SAINT CLOUD    PTSUNNY   70  60  70 VRB5      30.06S
MINNEAPOLIS    PTSUNNY   73  58  59 S7        30.06F
$$

  *****  WEATHER ACROSS SOUTH DAKOTA  *****

CITY           SKY/WX    TMP DP  RH WIND       PRES   REMARKS
SIOUX FALLS    FAIR      77  64  64 S12       30.00F
BROOKINGS      FAIR      74  62  66 S14       30.00F
WATERTOWN      FAIR      74  63  68 SE13      29.97F
HURON          FAIR      79  63  57 SE16G23   29.91F
SISSETON         N/A     78  64  61 SE12      29.96F
ABERDEEN       FAIR      76  65  68 S15       29.93F
MITCHELL       FAIR      80  63  55 SE20G25   29.94F
PIERRE         FAIR      85  58  39 S15       29.84R
MOBRIDGE       TSTM      72  65  78 SE15      29.83F
RAPID CITY     FAIR      86  54  33 S7        29.86F
$$

  *****  SOME WEATHER IN NEARBY STATES *****

CITY           SKY/WX    TMP DP  RH WIND       PRES   REMARKS
GLASGOW MT     FAIR      77  53  43 NW21G26   29.86R
GREAT FALLS MT FAIR      64  43  46 NW7       30.00F
CHEYENNE WY    FAIR      89  31  12 VRB3      30.13F
SCOTTSBLUFF NE FAIR      91  54  28 VRB6      29.95F
OMAHA NE       FAIR      80  62  54 S8        30.02F
DES MOINES IA  FAIR      80  59  48 NW6       30.03S
DAVENPORT IA   CLOUDY    70  64  81 NE9       30.07S
CHICAGO IL     PTSUNNY   71  56  58 N13       30.04R
EAU CLAIRE WI  PTSUNNY   66  56  70 E6        30.09S
LA CROSSE WI   CLOUDY    68  57  68 VRB3      30.08F
$$

  *****  SOME NATIONAL WEATHER *****

CITY           SKY/WX    TMP DP  RH WIND       PRES   REMARKS
LA GUARDIA NY  LGT RAIN  64  61  90 N13       29.82R
RALEIGH NC     PTSUNNY   88  73  61 W6        29.92F HX  95
ATLANTA GA     PTSUNNY   88  73  61 SW8       30.00S HX  95
NEW ORLEANS LA CLOUDY    89  75  63 SW12      30.02S HX  99
OKLAHOMA CITY  FAIR      89  67  47 S8        30.00S HX  92
ALBUQUERQUE NM PTSUNNY   79  56  45 W5        30.20F
SALT LAKE CITY PTSUNNY   85  51  31 S6        30.02S
LOS ANGELES CA PTSUNNY   74  65  73 W7        29.94R
BOISE ID       FAIR      82  53  36 W8        29.89F THUNDER
SEATTLE WA     FAIR      67  53  61 W5        30.05F
$$

*** WEATHER ACROSS MANITOBA...SASKATCHEWAN AND ONTARIO ***
                ***ONTARIO***

CITY           SKY/WX    TMP DP  RH WIND       PRES   REMARKS
GERALDTON      MOSUNNY   79  54  41 NW7       30.01F
THUNDER BAY    MOSUNNY   77  59  53 VRB5      30.04F
SIOUX LOOKOUT  MOSUNNY   73  59  60 SW7       30.01F
TORONTO        LGT RAIN  68  63  83 SE2       29.77S
BIG TROUT LK   SUNNY     79  55  44 SW6       29.87F
PICKLE LAKE    PTSUNNY   77  50  38 SW10G18   29.97S
DRYDEN         PTSUNNY   75  57  53 SW10G22   30.02S
KENORA         NOT AVBL
$$
                *** MANITOBA***

CITY           SKY/WX    TMP DP  RH WIND       PRES   REMARKS
BRANDON        MOSUNNY   82  64  54 SW8G17    29.78R
DAUPHIN        SUNNY     81  63  54 S13G18    29.64F
ISLAND LAKE    PTSUNNY   81  61  50 S9        29.81F
PILOT MOUND      N/A     77  64  65 S17G23      N/A
THE PAS        PTSUNNY   73  61  64 SE15G25   29.55F
THOMPSON       CLOUDY    73  61  64 E7        29.72F
WINNIPEG       NOT AVBL
LYNN LAKE      PTSUNNY   66  61  82 E10       29.69F
CHURCHILL      MOSUNNY   55  48  76 NE12      29.85F
GILLAM         PTSUNNY   73  61  64 NE8       29.78S
$$
                ***SASKATCHEWAN***

CITY           SKY/WX    TMP DP  RH WIND       PRES   REMARKS
ESTEVAN        PTSUNNY   81  59  47 W23       29.74R
KINDERSLEY     MOSUNNY   64  41  42 W18G28    29.83S
LLOYDMINSTER   PTSUNNY   57  46  67 W24G35    29.70F
PRINCE ALBERT  PTSUNNY   68  61  77 W25G32    29.59R
REGINA         MOSUNNY   73  57  56 NW24      29.76R
YORKTON        SUNNY     79  61  53 SW14G23   29.65R



USA.gov is the U.S. government's official web portal to all federal, state and local government web resources and services.